Total_Precipitation_Accumulation
2.31 2.21 3.23 4.79 5.09 4.37 3.76 3.17 2.36 1.92 1.36 1.13 1.01 1.13 1.55 2.15 2.64 3.21 3.57 3.42 2.34 1.99 2.16 3.01 4.20 4.18 3.81 3.87 3.82 3.75 3.69 3.59 3.53 3.41 3.17 3.09 3.06 3.17 3.54 3.52 3.44 3.25 3.25 3.47 3.59 3.77 3.97 4.02 4.06
1.89 2.63 3.88 5.33 4.87 3.92 3.58 3.03 2.25 1.60 1.07 0.84 0.75 0.83 0.98 1.06 1.18 2.02 3.34 3.30 1.95 1.64 1.93 2.54 3.62 3.59 3.53 3.54 3.30 3.22 3.22 3.13 3.20 3.21 3.02 3.03 3.13 3.25 3.51 3.47 3.31 3.10 3.00 3.15 3.42 3.69 3.76 3.81 3.93
2.10 3.37 4.50 4.75 3.81 3.54 3.48 2.73 1.83 1.10 0.75 0.67 0.70 0.69 0.83 1.28 1.47 2.22 2.97 2.36 1.51 1.33 1.70 2.57 3.42 3.21 3.24 3.21 2.93 2.97 2.89 2.88 2.99 3.09 3.00 3.14 3.15 3.21 3.44 3.54 3.53 3.40 3.41 3.38 3.54 3.63 3.65 3.82 3.87
2.42 3.71 4.02 3.71 3.23 2.68 2.30 1.93 1.43 1.22 0.81 0.53 0.53 0.70 0.81 1.35 1.79 2.07 2.07 1.63 1.30 1.34 1.52 2.20 3.00 2.90 2.83 2.78 2.83 2.86 2.80 2.78 2.78 2.91 3.00 3.12 3.19 3.17 3.40 3.65 3.58 3.37 3.57 3.78 3.86 3.82 3.80 3.88 3.96
3.00 3.86 3.67 3.10 2.66 2.15 1.62 1.30 1.12 1.14 0.95 0.59 0.48 0.77 1.13 1.66 1.86 1.67 1.50 1.18 1.12 1.20 1.25 1.72 2.58 2.66 2.62 2.63 2.72 2.86 2.78 2.80 2.71 2.82 3.19 3.24 3.18 3.23 3.38 3.69 3.69 3.38 3.49 3.83 3.99 4.01 3.95 3.82 3.78
3.30 3.42 3.42 2.92 2.60 2.07 1.60 1.19 0.96 0.92 0.77 0.57 0.49 0.76 1.30 1.71 1.93 1.68 1.41 1.35 1.30 1.31 1.21 1.44 2.22 2.42 2.37 2.54 2.56 2.65 2.79 2.77 2.65 2.70 2.85 2.99 3.06 3.09 3.23 3.35 3.35 3.17 3.18 3.37 3.50 3.53 3.72 3.57 3.52
3.17 3.08 2.85 2.35 2.40 2.52 1.84 1.17 1.03 1.01 0.85 0.62 0.47 0.81 1.32 1.64 1.61 1.50 1.51 1.56 1.56 1.58 1.50 1.59 1.82 2.03 2.28 2.48 2.48 2.62 2.78 2.73 2.58 2.49 2.52 2.54 2.69 2.71 2.79 2.91 3.09 3.11 3.23 3.27 3.29 3.46 3.60 3.51 3.44
2.44 2.53 2.29 2.22 2.43 2.65 1.72 1.13 0.96 0.92 0.86 0.47 0.41 0.80 1.26 1.28 1.23 1.36 1.45 1.49 1.49 1.54 1.48 1.52 1.67 1.76 1.83 2.01 2.44 2.73 3.09 2.97 2.54 2.29 2.16 2.31 2.39 2.38 2.54 2.64 2.98 3.29 3.49 3.70 3.67 3.75 3.54 3.41 3.20
2.18 2.60 2.71 2.72 2.67 2.31 1.52 1.30 1.03 0.72 0.67 0.52 0.47 0.64 0.81 0.83 1.00 1.12 1.28 1.29 1.27 1.25 1.27 1.37 1.46 1.53 1.65 1.62 1.88 2.45 2.93 2.92 2.44 2.08 2.05 1.98 1.81 1.81 2.01 2.28 2.84 3.23 3.50 3.81 3.84 3.68 3.41 3.07 2.83
2.12 2.54 2.44 2.04 1.71 1.44 1.25 1.14 0.98 0.88 0.90 0.77 0.69 0.67 0.68 0.73 0.98 1.08 1.12 1.21 1.14 1.08 1.04 1.05 1.05 1.16 1.27 1.23 1.57 1.93 1.95 2.17 1.94 1.86 1.79 1.78 1.84 1.87 1.59 1.78 2.35 2.77 3.09 3.37 3.60 3.48 3.00 2.35 2.11
1.78 1.91 1.68 1.46 1.12 0.92 0.93 0.84 0.74 0.80 0.93 0.81 0.82 0.75 0.77 0.79 0.91 0.97 0.94 0.93 0.98 0.94 0.92 0.86 0.83 0.90 1.06 1.22 1.38 1.61 1.80 1.95 1.93 1.86 1.87 1.96 1.93 1.66 1.52 1.60 1.78 2.07 2.39 2.52 2.76 2.73 2.25 1.89 1.78
1.70 1.41 1.24 1.19 0.84 0.83 0.86 0.72 0.64 0.65 0.63 0.52 0.62 0.62 0.69 0.77 0.81 0.81 0.80 0.82 0.80 0.78 0.87 0.84 0.68 0.71 0.80 0.87 1.04 1.20 1.44 1.67 1.76 1.60 1.55 1.75 1.82 1.65 1.52 1.70 1.77 1.98 2.29 2.57 2.66 2.43 2.08 1.69 1.53
1.65 1.51 1.22 1.07 0.83 0.83 0.78 0.72 0.62 0.54 0.48 0.43 0.50 0.65 0.74 0.81 0.84 0.80 0.76 0.79 0.76 0.78 0.84 0.88 0.77 0.73 0.77 0.82 0.90 0.91 1.21 1.40 1.58 1.65 1.45 1.59 1.69 1.65 1.55 1.51 1.69 1.80 2.10 2.36 2.52 2.41 2.17 1.87 1.60
1.51 1.37 1.12 1.01 0.90 0.82 0.78 0.70 0.66 0.58 0.50 0.48 0.54 0.68 0.75 0.82 0.85 0.81 0.78 0.76 0.68 0.76 0.86 0.87 0.86 0.83 0.82 0.84 0.84 0.85 0.92 1.01 1.13 1.09 1.10 1.25 1.40 1.43 1.47 1.39 1.50 1.70 2.04 2.48 2.62 2.37 2.22 2.00 1.84
1.25 1.35 1.40 1.15 0.95 0.77 0.80 1.00 0.75 0.63 0.63 0.62 0.64 0.68 0.73 0.72 0.76 0.78 0.76 0.77 0.76 0.79 0.85 0.91 0.94 0.99 0.97 0.94 0.99 0.98 0.95 0.97 0.97 0.94 0.95 1.03 1.15 1.22 1.32 1.40 1.44 1.60 1.97 2.45 2.76 2.62 2.41 2.11 2.00
1.37 1.57 1.89 1.49 1.19 0.95 1.08 1.37 0.77 0.67 0.71 0.70 0.68 0.64 0.65 0.62 0.66 0.71 0.74 0.79 0.82 0.81 0.77 0.81 0.83 0.92 0.93 0.95 0.98 1.09 1.10 1.10 1.10 1.12 1.08 1.02 1.16 1.26 1.35 1.47 1.45 1.53 1.86 2.30 2.70 2.84 2.82 2.59 2.39
1.57 1.57 1.55 1.48 1.25 1.05 1.04 1.07 0.75 0.69 0.73 0.75 0.71 0.67 0.70 0.53 0.55 0.61 0.62 0.70 0.79 0.80 0.75 0.73 0.76 0.77 0.79 0.79 0.85 0.99 1.08 1.15 1.24 1.25 1.25 1.26 1.32 1.34 1.44 1.65 1.70 1.71 1.96 2.20 2.35 2.59 2.78 2.84 2.62
1.24 1.15 1.16 1.26 1.07 1.04 1.02 0.84 0.66 0.67 0.71 0.75 0.77 0.70 0.67 0.51 0.45 0.45 0.51 0.62 0.73 0.77 0.79 0.76 0.75 0.73 0.70 0.69 0.77 0.91 1.01 1.07 1.27 1.34 1.38 1.67 1.78 1.56 1.52 1.70 1.76 1.82 2.12 2.26 2.41 2.71 2.83 2.91 2.89
0.89 0.85 0.97 0.95 0.78 0.96 0.95 0.78 0.67 0.61 0.57 0.60 0.66 0.68 0.64 0.54 0.43 0.40 0.40 0.49 0.58 0.60 0.62 0.71 0.73 0.80 0.78 0.67 0.64 0.79 0.95 1.11 1.27 1.43 1.44 1.67 1.77 1.65 1.69 1.76 1.81 1.87 2.02 2.11 2.29 2.75 2.92 2.94 2.85
0.84 0.93 0.98 0.88 0.76 0.86 0.96 0.81 0.68 0.59 0.51 0.52 0.58 0.63 0.63 0.55 0.47 0.43 0.41 0.46 0.51 0.56 0.55 0.60 0.66 0.78 0.87 0.85 0.82 0.92 1.13 1.26 1.38 1.56 1.59 1.65 1.66 1.63 1.55 1.78 1.95 1.93 2.11 2.18 2.36 2.75 3.10 2.94 2.85
0.78 0.87 0.88 0.90 0.94 0.88 0.95 1.06 0.83 0.65 0.57 0.53 0.53 0.57 0.57 0.49 0.44 0.43 0.40 0.37 0.40 0.46 0.47 0.53 0.66 0.83 1.02 1.19 1.41 1.63 1.92 2.08 1.93 1.80 1.88 1.96 2.01 1.92 1.84 1.94 2.12 2.10 2.18 2.29 2.36 2.53 3.09 3.36 3.17
0.88 0.63 0.66 0.79 1.08 1.14 0.94 1.25 0.90 0.65 0.62 0.60 0.56 0.51 0.47 0.42 0.40 0.37 0.36 0.36 0.38 0.47 0.58 0.71 0.89 1.05 1.25 1.47 1.73 2.02 2.26 2.44 2.37 2.39 2.45 2.39 2.31 2.20 2.04 2.08 2.19 2.24 2.32 2.30 2.14 2.35 2.92 3.51 3.62
0.69 0.60 0.65 0.80 1.06 1.05 0.91 0.98 0.85 0.66 0.70 0.70 0.65 0.56 0.53 0.51 0.49 0.51 0.50 0.49 0.54 0.66 0.82 0.97 1.29 1.48 1.60 1.67 1.79 2.07 2.17 2.22 2.28 2.38 2.42 2.43 2.35 2.25 2.10 2.04 2.21 2.31 2.37 2.34 2.39 2.56 2.88 3.24 3.59
0.58 0.71 0.83 0.96 1.12 1.13 0.78 0.80 0.88 0.66 0.70 0.77 0.71 0.61 0.56 0.55 0.52 0.57 0.65 0.66 0.74 1.00 1.28 1.43 1.60 1.85 1.81 1.74 1.75 1.86 2.01 2.10 2.17 2.27 2.31 2.24 2.12 2.09 2.06 2.08 2.10 2.11 2.20 2.29 2.44 2.69 2.84 3.03 3.26
0.60 0.96 1.28 1.33 1.25 0.92 0.50 0.62 0.72 0.53 0.48 0.55 0.59 0.58 0.53 0.48 0.50 0.57 0.66 0.80 1.04 1.30 1.53 1.67 1.73 1.78 1.73 1.63 1.71 1.72 1.88 2.07 2.10 2.08 2.03 2.00 1.92 1.87 1.90 2.00 1.99 1.90 1.92 2.06 2.22 2.43 2.45 2.58 2.80
0.53 0.71 1.11 1.27 1.09 0.76 0.52 0.69 0.68 0.48 0.37 0.33 0.34 0.39 0.48 0.53 0.61 0.66 0.73 0.93 1.27 1.57 1.81 2.11 2.11 1.92 1.76 1.67 1.74 1.86 1.96 2.02 1.99 1.85 1.80 1.79 1.72 1.66 1.61 1.65 1.74 1.76 1.76 1.83 1.99 2.12 2.08 2.13 2.34
0.50 0.53 0.58 0.84 0.73 0.70 0.58 0.61 0.54 0.36 0.29 0.28 0.30 0.36 0.48 0.59 0.71 0.83 1.01 1.12 1.41 1.67 1.99 2.31 2.43 2.24 2.07 1.99 1.95 2.01 1.97 1.84 1.73 1.62 1.58 1.58 1.56 1.45 1.38 1.42 1.54 1.64 1.66 1.68 1.85 1.96 1.90 1.95 2.05
0.41 0.48 0.60 0.86 0.95 0.92 0.67 0.64 0.58 0.41 0.30 0.29 0.39 0.45 0.53 0.65 0.72 0.92 1.25 1.56 1.88 1.86 1.99 2.18 2.17 2.15 2.16 2.19 2.18 2.10 1.95 1.79 1.73 1.65 1.63 1.57 1.54 1.41 1.37 1.37 1.38 1.42 1.45 1.51 1.73 1.91 1.97 1.96 1.98
0.41 0.49 0.59 0.75 0.77 0.97 1.01 0.85 0.58 0.50 0.47 0.49 0.54 0.57 0.62 0.70 0.79 1.02 1.26 1.50 1.78 1.91 1.91 1.90 1.90 2.00 2.03 1.94 1.90 1.83 1.62 1.48 1.45 1.45 1.43 1.39 1.36 1.24 1.19 1.15 1.19 1.31 1.30 1.31 1.50 1.60 1.64 1.80 1.88
0.44 0.48 0.59 0.94 0.92 0.82 1.07 1.08 0.66 0.66 0.67 0.73 0.79 0.83 0.84 0.86 0.94 1.11 1.24 1.44 1.54 1.58 1.69 1.78 1.68 1.66 1.66 1.58 1.50 1.40 1.35 1.27 1.27 1.28 1.22 1.15 1.19 1.13 1.15 1.14 1.06 1.19 1.32 1.33 1.36 1.38 1.39 1.56 1.67